Погода в Барвихе

Россия / Московская область     55°43′26″N   37°16′51″E
темп.,
°C
ветер,
м/с
пор.,
м/с
влажн.,
%
обл.,
%
осадки,
мм/ч
давл.,
гПа
погр.,
м
12 апреля, пн
пн1200:00+8ююв22662 0.0 103230
03:00+7вюв23695 0.0 103337
06:00+6вюв2774100 0.0 1034139
09:00+8вюв41159100 0.0 1033453
12:00+12вюв51043100 0.0 1032868
15:00+14вюв5941100 0.0 1030979
18:00+13вюв4956100 0.0 1029788
21:00+11вюв41272100 0.0 1029537
13 апреля, вт
вт1300:00+9вюв41287100 0.0 1028360
03:00+8вюв3119682 0.0 1026266
06:00+7юв31092100 0.0 1026220
09:00+12ююв396487 0.0 1025327
12:00+17ююв5844100 0.0 1024753
15:00+20ю573276 0.0 10241886
18:00+19ююв473611 0.0 1023791
21:00+15ююв31050100 0.0 1023281
14 апреля, ср
ср1400:00+13ююв3125612 0.0 1023299
03:00+11ююв313595 0.0 1022311
06:00+9ююв2765100 0.0 1022164
09:00+13ююв485189 0.0 1021311
12:00+17ююв5737100 0.0 1020913
15:00+19ююв573098 0.0 10191800
18:00+18ююв363244 0.0 10181531
21:00+14юв3845100 0.0 1018213
15 апреля, чт
чт1500:00+12юв2753100 0.0 1018167
03:00+10ююв236095 0.0 101851
06:00+10юв2263100 0.0 101820
09:00+12юв2353100 0.0 1018199
12:00+16ю1242100 0.0 1017658
15:00+18в1141100 0.0 10161190
18:00+17всв2241100 0.1 1016734
21:00+14в2249100 0.1 101627
16 апреля, пт
пт1600:00+12ссв2361100 0.0 101667
03:00+10с3678100 0.0 1016209
06:00+8ссв4988100 0.0 1017296
09:00+6св61280100 0.3 1021762
12:00+4св71489100 0.3 1023750
15:00+9св71249100 0.6 10231393
18:00+8св71240100 0.0 10241522
21:00+6св713420 0.0 10261388